FENGYUN 1C DEB

Satellite information

Favourite Embed

Satellite Type and Status

DEBRISIN ORBIT

Key statistics

Satellite FENGYUN 1C DEB at a glance.

Uptime

9714

Days in orbit

Revolutions

≈ 14.3

Per day

Orbit

SSO

Sun Synchronous Orbit

Inclination

99.0

Latest

Satellite identification and parameters

Extended collection of information and parameters for FENGYUN 1C DEB.

Object identification

Identified? True

Debris? True

Object name: FENGYUN 1C DEB

International designator: 1999-025CSZ

Object number (NORAD): 32155

Object ID (CCSDS): 32155

Country: PEOPLES REPUBLIC OF CHINA (PRC)

Current information (Y/N): Y

RCS size: SMALL

Orbital parameters

Period: 100.495 minutes

Inclination: 98.9526 deg

SMA: 7160.148 km

Apoapsis: 831.623 km

Periapsis: 732.403 km

RAAN: 267.8922 deg

Eccentricy: 0.0069286

Argument of periapsis: 264.2615 deg

Mean anomaly: 95.0665 deg

Mean motion: 14.32912866 rev/day

Mean motion (dot): 0.00003211 rev/day2

B* drag term: 0.001161 1/REarth

Two-line elements (TLE)

Creation date: Dec. 4, 2025, 9:36 p.m.

Reference frame: TEME

Reference center: EARTH

Epoch: Dec. 4, 2025, 1:09 p.m. UTC

TLE line 0: 0 FENGYUN 1C DEB

TLE line 1: 1 32155U 99025CSZ 25338.54803273 .00003211 00000-0 11610-2 0 9992

TLE line 2: 2 32155 98.9526 267.8922 0069286 264.2615 95.0665 14.32912866701056

Live tracking on map

Real-time ground track for satellite FENGYUN 1C DEB.

In-orbit conjunctions

A list of the most updated potential collisions computed for object FENGYUN 1C DEB.

Target Orbit TCA Probability of collision Miss distance Type
CZ-6A R/B DEB LEO 2025-07-19 03:10:57 0.0001948949 112.0 (m) DEBRIS
RIGIDSPHERE 2 (LCS 4) LEO 2025-04-28 07:15:43 0.0002351456 518.0 (m) PAYLOAD
IRIDIUM 33 DEB LEO 2025-02-28 20:13:50 0.0001448045 381.0 (m) DEBRIS
CZ-6A DEB LEO 2024-12-15 20:43:10 0.0001658361 729.0 (m) DEBRIS
METEOR 1-24 LEO 2024-11-19 18:54:40 0.0006761339 180.0 (m) PAYLOAD

Associated space launch

Chinese polar orbiting meteorological satellite

FENGYUN 1C DEB was lifted into orbit during the mission ‘Long March 4B | Feng Yun 1C’, on board a Long March 4B space rocket.

The launch took place on May 10, 1999, 1:33 a.m. from Launch Complex 7.

For more information about the launch, click the button.

Launch to space Long March 4B | Feng Yun 1C
Long March 4B | Feng Yun 1C

Agency: N/A

Status: Launch Successful

Launch date: May 10, 1999, 1:33 a.m. UTC

Rocket: Long March 4B

Launch pad: Launch Complex 7

Location: Taiyuan Satellite Launch Center, People's Republic of China

...

Latest news about this satellite

There are no fresh news available about this satellite. Check back as we update our databases every day.


Newsletter sign-up

Weekly statistics, charts and insights to help you stay on top of the space industry.